Willmar, MN

9:02 PM CST on December 13, 2019 (GMT -0600)
Willmar

Weather History for KBDH - November, 2019

Change the Weather History Date:

Tuesday, November 12, 2019

  Actual Average (WUND) Record (WUND)
Temperature  
Mean Temperature 10 °F -  
Max Temperature 21 °F - - (-1)
Min Temperature 0 °F - - (-1)
Degree Days  
Heating Degree Days 54    
Moisture  
Dew Point 5 °F    
Average Humidity 70    
Maximum Humidity 85    
Minimum Humidity 54    
Precipitation  
Precipitation 0.00 in - - ()
Sea Level Pressure  
Sea Level Pressure 30.28 in    
Wind  
Wind Speed 7 mph ()    
Max Wind Speed 23 mph    
Max Gust Speed 33 mph    
Visibility 10.0 miles    
Events      
Averages and records for this station are not official NWS values.
T = Trace of Precipitation, MM = Missing Value Source: Averaged Metar Reports

Daily Weather History Graph

Daily Weather History Graph

Search for Another Location

Airport or City:

Astronomy

Nov. 12, 2019 Rise Set
Actual Time 7:14 AM CST 4:54 PM CST
Civil Twilight 6:42 AM CST 5:26 PM CST
Nautical Twilight 6:07 AM CST 6:01 PM CST
Astronomical Twilight 5:32 AM CST 6:36 PM CST
Moon 5:23 PM CST (11/12) 7:04 AM CST (11/12)
Length of Visible Light 10h 43m
Length of Day
9h 40m
Full, 100% of the Moon is Illuminated
Nov 12
Full
Nov 19
Last Quarter
Nov 26
New
Dec 4
First Quarter
Dec 11
Full

Hourly Weather History & Observations

Time (CST) Temp. Windchill Dew Point Humidity Pressure Visibility Wind Dir Wind Speed Gust Speed Precip Events Conditions
12:18 AM 3.2 °F -4.2 °F -2.2 °F 78% 30.62 in 10.0 mi West 3.5 mph - N/A   Clear
12:35 AM 3.2 °F - -2.2 °F 78% 30.61 in 10.0 mi Calm Calm - N/A   Clear
12:55 AM 1.4 °F -6.2 °F -2.2 °F 85% 30.61 in 10.0 mi West 3.5 mph - N/A   Clear
12:59 AM 1.4 °F -6.2 °F -2.2 °F 85% 30.61 in 10.0 mi West 3.5 mph - N/A   Clear
1:15 AM 1.4 °F -6.2 °F -2.2 °F 85% 30.60 in 10.0 mi West 3.5 mph - N/A   Clear
1:35 AM 1.4 °F - -2.2 °F 85% 30.60 in 10.0 mi Calm Calm - N/A   Clear
1:39 AM 1.4 °F - -2.2 °F 85% 30.60 in 10.0 mi Calm Calm - N/A   Clear
1:55 AM 1.4 °F -6.2 °F -2.2 °F 85% 30.60 in 10.0 mi West 3.5 mph - N/A   Clear
2:15 AM 1.4 °F - -2.2 °F 85% 30.60 in 10.0 mi Calm Calm - N/A   Clear
2:16 AM 1.4 °F - -2.2 °F 85% 30.60 in 10.0 mi Calm Calm - N/A   Clear
2:36 AM 1.4 °F - -2.2 °F 85% 30.59 in 10.0 mi Calm Calm - N/A   Clear
2:55 AM 1.4 °F - -2.2 °F 85% 30.59 in 10.0 mi Calm Calm - N/A   Clear
2:56 AM 1.4 °F - -2.2 °F 85% 30.59 in 10.0 mi Calm Calm - N/A   Clear
3:16 AM 1.4 °F -6.2 °F -2.2 °F 85% 30.58 in 10.0 mi West 3.5 mph - N/A   Clear
3:35 AM 1.4 °F - -2.2 °F 85% 30.57 in 10.0 mi Calm Calm - N/A   Clear
3:56 AM 1.4 °F - -2.2 °F 85% 30.56 in 10.0 mi Calm Calm - N/A   Clear
4:16 AM 1.4 °F - -4.0 °F 78% 30.54 in 10.0 mi Calm Calm - N/A   Clear
4:36 AM -0.4 °F - -4.0 °F 85% 30.54 in 10.0 mi Calm Calm - N/A   Clear
4:55 AM 1.4 °F - -2.2 °F 85% 30.54 in 10.0 mi Calm Calm - N/A   Clear
5:16 AM 1.4 °F - -4.0 °F 78% 30.53 in 10.0 mi Calm Calm - N/A   Clear
5:35 AM 1.4 °F - -4.0 °F 78% 30.53 in 10.0 mi Calm Calm - N/A   Clear
5:36 AM 1.4 °F - -4.0 °F 78% 30.52 in 10.0 mi Calm Calm - N/A   Clear
5:57 AM -0.4 °F - -4.0 °F 85% 30.51 in 10.0 mi Calm Calm - N/A   Clear
6:16 AM 1.4 °F - -4.0 °F 78% 30.50 in 10.0 mi Calm Calm - N/A   Clear
6:37 AM 1.4 °F - -4.0 °F 78% 30.50 in 10.0 mi Calm Calm - N/A   Clear
6:55 AM -0.4 °F - -4.0 °F 85% 30.49 in 10.0 mi Calm Calm - N/A   Clear
6:56 AM -0.4 °F - -4.0 °F 85% 30.49 in 10.0 mi Calm Calm - N/A   Clear
7:17 AM 1.4 °F - -2.2 °F 85% 30.49 in 10.0 mi Calm Calm - N/A   Clear
7:36 AM 1.4 °F - -2.2 °F 85% 30.48 in 10.0 mi Calm Calm - N/A   Clear
7:55 AM 3.2 °F - -0.4 °F 85% 30.48 in 10.0 mi Calm Calm - N/A   Clear
7:59 AM 5.0 °F - -0.4 °F 78% 30.47 in 10.0 mi Calm Calm - N/A   Clear
8:15 AM 6.8 °F - 1.4 °F 79% 30.47 in 10.0 mi Calm Calm - N/A   Clear
8:35 AM 8.6 °F -1.3 °F 1.4 °F 73% 30.46 in 10.0 mi South 5.8 mph - N/A   Clear
8:39 AM 8.6 °F 0.1 °F 1.4 °F 73% 30.46 in 10.0 mi South 4.6 mph - N/A   Clear
8:55 AM 10.4 °F 0.8 °F 3.2 °F 73% 30.46 in 10.0 mi South 5.8 mph - N/A   Clear
9:15 AM 10.4 °F -1.5 °F 1.4 °F 67% 30.45 in 10.0 mi South 8.1 mph - N/A   Clear
9:16 AM 10.4 °F -1.5 °F 1.4 °F 67% 30.44 in 10.0 mi South 8.1 mph - N/A   Clear
9:37 AM 12.2 °F 1.7 °F 3.2 °F 67% 30.43 in 10.0 mi SSE 6.9 mph - N/A   Clear
9:56 AM 14.0 °F 2.0 °F 5.0 °F 67% 30.41 in 10.0 mi SSE 9.2 mph - N/A   Clear
10:17 AM 15.8 °F 4.2 °F 5.0 °F 62% 30.39 in 10.0 mi South 9.2 mph - N/A   Clear
10:35 AM 15.8 °F 2.1 °F 5.0 °F 62% 30.38 in 10.0 mi SSE 12.7 mph 21.9 mph N/A   Clear
10:36 AM 15.8 °F 2.7 °F 5.0 °F 62% 30.38 in 10.0 mi SSE 11.5 mph 21.9 mph N/A   Clear
10:57 AM 17.6 °F 2.7 °F 6.8 °F 63% 30.37 in 10.0 mi SSE 16.1 mph 19.6 mph N/A   Clear
11:16 AM 17.6 °F 6.4 °F 5.0 °F 58% 30.36 in 10.0 mi South 9.2 mph 21.9 mph N/A   Clear
11:38 AM 19.4 °F 6.6 °F 6.8 °F 58% 30.34 in 10.0 mi SSE 12.7 mph 19.6 mph N/A   Clear
11:55 AM 19.4 °F 6.6 °F 6.8 °F 58% 30.32 in 10.0 mi SSE 12.7 mph - N/A   Clear
11:56 AM 19.4 °F 6.0 °F 5.0 °F 54% 30.32 in 10.0 mi SSE 13.8 mph - N/A   Clear
12:18 PM 19.4 °F 4.1 °F 6.8 °F 58% 30.30 in 10.0 mi SSE 18.4 mph - N/A   Clear
12:35 PM 19.4 °F 4.5 °F 5.0 °F 54% 30.28 in 10.0 mi SSE 17.3 mph 24.2 mph N/A   Clear
12:36 PM 19.4 °F 4.5 °F 5.0 °F 54% 30.28 in 10.0 mi SSE 17.3 mph 24.2 mph N/A   Clear
12:58 PM 19.4 °F 2.8 °F 6.8 °F 58% 30.26 in 10.0 mi SSE 21.9 mph 25.3 mph N/A   Clear
1:15 PM 19.4 °F 3.6 °F 6.8 °F 58% 30.25 in 10.0 mi SSE 19.6 mph 26.5 mph N/A   Clear
1:35 PM 21.2 °F 5.6 °F 6.8 °F 54% 30.23 in 10.0 mi SSE 20.7 mph 27.6 mph N/A   Clear
1:39 PM 21.2 °F 6.0 °F 6.8 °F 54% 30.23 in 10.0 mi SSE 19.6 mph 27.6 mph N/A   Clear
1:55 PM 19.4 °F 4.1 °F 6.8 °F 58% 30.21 in 10.0 mi SSE 18.4 mph 26.5 mph N/A   Clear
2:15 PM 19.4 °F 2.8 °F 6.8 °F 58% 30.19 in 10.0 mi SSE 21.9 mph 28.8 mph N/A   Clear
2:16 PM 19.4 °F 2.8 °F 6.8 °F 58% 30.19 in 10.0 mi SSE 21.9 mph 28.8 mph N/A   Clear
2:36 PM 19.4 °F 2.5 °F 6.8 °F 58% 30.17 in 10.0 mi SSE 23.0 mph 29.9 mph N/A   Clear
2:55 PM 19.4 °F 3.2 °F 6.8 °F 58% 30.15 in 10.0 mi SSE 20.7 mph 28.8 mph N/A   Clear
2:56 PM 19.4 °F 3.2 °F 6.8 °F 58% 30.15 in 10.0 mi SSE 20.7 mph 28.8 mph N/A   Clear
3:16 PM 19.4 °F 4.5 °F 8.6 °F 63% 30.13 in 10.0 mi SSE 17.3 mph 33.4 mph N/A   Clear
3:35 PM 19.4 °F 2.8 °F 8.6 °F 63% 30.13 in 10.0 mi SSE 21.9 mph 28.8 mph N/A   Clear
3:36 PM 19.4 °F 3.2 °F 8.6 °F 63% 30.13 in 10.0 mi SSE 20.7 mph 28.8 mph N/A   Clear
3:56 PM 19.4 °F 4.5 °F 8.6 °F 63% 30.13 in 10.0 mi SSE 17.3 mph 27.6 mph N/A   Clear
4:15 PM 19.4 °F 4.1 °F 8.6 °F 63% 30.11 in 10.0 mi SSE 18.4 mph 27.6 mph N/A   Clear
4:16 PM 19.4 °F 4.1 °F 8.6 °F 63% 30.11 in 10.0 mi SSE 18.4 mph 27.6 mph N/A   Clear
4:37 PM 19.4 °F 4.1 °F 8.6 °F 63% 30.11 in 10.0 mi SSE 18.4 mph 29.9 mph N/A   Clear
4:55 PM 19.4 °F 5.5 °F 8.6 °F 63% 30.11 in 10.0 mi SSE 15.0 mph 23.0 mph N/A   Clear
4:56 PM 19.4 °F 5.5 °F 8.6 °F 63% 30.11 in 10.0 mi SSE 15.0 mph 23.0 mph N/A   Clear
5:17 PM 19.4 °F 4.1 °F 8.6 °F 63% 30.08 in 10.0 mi SSE 18.4 mph 28.8 mph N/A   Clear
5:35 PM 19.4 °F 4.1 °F 8.6 °F 63% 30.08 in 10.0 mi SSE 18.4 mph 25.3 mph N/A   Clear
5:36 PM 19.4 °F 3.6 °F 8.6 °F 63% 30.08 in 10.0 mi SSE 19.6 mph 25.3 mph N/A   Clear
5:57 PM 19.4 °F 4.5 °F 8.6 °F 63% 30.07 in 10.0 mi SSE 17.3 mph - N/A   Clear
6:15 PM 19.4 °F 5.5 °F 8.6 °F 63% 30.07 in 10.0 mi SSE 15.0 mph 25.3 mph N/A   Clear
6:16 PM 19.4 °F 6.0 °F 8.6 °F 63% 30.07 in 10.0 mi SSE 13.8 mph 23.0 mph N/A   Clear
6:38 PM 19.4 °F 5.5 °F 10.4 °F 68% 30.07 in 10.0 mi SSE 15.0 mph 23.0 mph N/A   Clear
6:55 PM 19.4 °F 5.5 °F 10.4 °F 68% 30.07 in 10.0 mi SSE 15.0 mph 21.9 mph N/A   Clear
7:15 PM 19.4 °F 5.5 °F 10.4 °F 68% 30.05 in 10.0 mi SSE 15.0 mph 20.7 mph N/A   Clear
7:16 PM 19.4 °F 5.5 °F 10.4 °F 68% 30.05 in 10.0 mi SSE 15.0 mph 20.7 mph N/A   Clear
7:36 PM 19.4 °F 5.0 °F 10.4 °F 68% 30.04 in 10.0 mi SSE 16.1 mph 24.2 mph N/A   Clear
7:55 PM 19.4 °F 4.1 °F 10.4 °F 68% 30.03 in 10.0 mi SSE 18.4 mph 25.3 mph N/A   Clear
7:56 PM 19.4 °F 4.5 °F 10.4 °F 68% 30.03 in 10.0 mi SSE 17.3 mph 25.3 mph N/A   Clear
8:18 PM 19.4 °F 6.0 °F 10.4 °F 68% 30.01 in 10.0 mi SSE 13.8 mph 24.2 mph N/A   Clear
8:35 PM 19.4 °F 5.0 °F 10.4 °F 68% 29.99 in 10.0 mi SSE 16.1 mph 21.9 mph N/A   Clear
8:36 PM 19.4 °F 5.5 °F 10.4 °F 68% 29.99 in 10.0 mi SSE 15.0 mph 21.9 mph N/A   Clear
8:58 PM 19.4 °F 4.5 °F 10.4 °F 68% 30.00 in 10.0 mi SSE 17.3 mph 20.7 mph N/A   Clear
9:15 PM 19.4 °F 4.5 °F 10.4 °F 68% 29.99 in 10.0 mi SSE 17.3 mph - N/A   Clear
9:35 PM 19.4 °F 5.5 °F 10.4 °F 68% 29.98 in 10.0 mi SSE 15.0 mph - N/A   Clear
9:39 PM 19.4 °F 5.5 °F 12.2 °F 74% 29.98 in 10.0 mi SSE 15.0 mph - N/A   Clear
9:55 PM 19.4 °F 6.6 °F 12.2 °F 74% 29.98 in 10.0 mi SE 12.7 mph 17.3 mph N/A   Clear
10:15 PM 19.4 °F 7.2 °F 12.2 °F 74% 29.97 in 10.0 mi SE 11.5 mph - N/A   Clear
10:16 PM 19.4 °F 7.2 °F 12.2 °F 74% 29.97 in 10.0 mi SE 11.5 mph - N/A   Clear
10:36 PM 19.4 °F 5.5 °F 12.2 °F 74% 29.96 in 10.0 mi SSE 15.0 mph 19.6 mph N/A   Clear
10:55 PM 19.4 °F 6.0 °F 12.2 °F 74% 29.95 in 10.0 mi SSE 13.8 mph - N/A   Clear
10:56 PM 19.4 °F 6.0 °F 12.2 °F 74% 29.95 in 10.0 mi SSE 13.8 mph - N/A   Clear
11:16 PM 21.2 °F 8.9 °F 12.2 °F 68% 29.93 in 10.0 mi SSE 12.7 mph 20.7 mph N/A   Clear
11:35 PM 21.2 °F 8.9 °F 12.2 °F 68% 29.92 in 10.0 mi SE 12.7 mph 17.3 mph N/A   Clear
11:36 PM 21.2 °F 8.9 °F 12.2 °F 68% 29.92 in 10.0 mi SE 12.7 mph 17.3 mph N/A   Clear
11:57 PM 21.2 °F 9.5 °F 12.2 °F 68% 29.91 in 10.0 mi SSE 11.5 mph 18.4 mph N/A   Scattered Clouds